This is the latest recevied weather packets stored in our database for station/object EA3DJ-10. If no packets are shown the sender has not sent any weather packets the latest 10 day(s).
| Time | Temp. | Humidity | Pressure | Rain* | Wind** | Luminosity | Snow |
|---|---|---|---|---|---|---|---|
| 1788578467 | 28.33° C | 54% | 1021 hPa | - | - | - | - |
| 1788577267 | 28.33° C | 55% | 1021 hPa | - | - | - | - |
| 1788576067 | 28.33° C | 56% | 1020.9 hPa | - | - | - | - |
| 1788574867 | 28.33° C | 56% | 1020.8 hPa | - | - | - | - |
| 1788573667 | 28.33° C | 56% | 1020.7 hPa | - | - | - | - |
| 1788572467 | 28.33° C | 56% | 1020.8 hPa | - | - | - | - |
| 1788571267 | 28.33° C | 56% | 1020.8 hPa | - | - | - | - |
| 1788570067 | 27.78° C | 54% | 1020.8 hPa | - | - | - | - |
| 1788568866 | 27.78° C | 52% | 1021 hPa | - | - | - | - |
| 1788567666 | 25.56° C | 53% | 1021.2 hPa | - | - | - | - |
| 1788566466 | 28.33° C | 51% | 1021.1 hPa | - | - | - | - |
| 1788565266 | 28.33° C | 50% | 1021.2 hPa | - | - | - | - |
| 1788564066 | 28.33° C | 50% | 1021.3 hPa | - | - | - | - |
| 1788562866 | 28.33° C | 50% | 1021.4 hPa | - | - | - | - |
| 1788561666 | 28.33° C | 48% | 1021.4 hPa | - | - | - | - |
| 1788560465 | 28.33° C | 47% | 1021.4 hPa | - | - | - | - |
| 1788559265 | 28.33° C | 47% | 1021.4 hPa | - | - | - | - |
| 1788558065 | 28.33° C | 46% | 1021.3 hPa | - | - | - | - |
| 1788556864 | 28.33° C | 45% | 1021.4 hPa | - | - | - | - |
| 1788555664 | 28.89° C | 45% | 1021.5 hPa | - | - | - | - |
| 1788554464 | 29.44° C | 41% | 1021.4 hPa | - | - | - | - |
| 1788553264 | 31.11° C | 36% | 1021.4 hPa | - | - | - | - |
| 1788552064 | 31.11° C | 36% | 1021.3 hPa | - | - | - | - |
| 1788550863 | 30.56° C | 35% | 1021.4 hPa | - | - | - | - |
| 1788549662 | 29.44° C | 34% | 1021.5 hPa | - | - | - | - |
* Rain since midnight (hover to see other rain measurements)
** Current wind speed in m/s (hover to see current wind gust speed)